Location: Caltech
(34.1382°N, 118.1253°W)
Time: 00:09:37
(UTC-07:00)

Sapphire - Visible Passes

Search period start: 30 April 2016 00:00
Search period end: 10 May 2016 00:00
Orbit: 784 x 797 km, 67.1° (Epoch: 29 April)

Date Brightness Start Highest point End Pass type
(mag) Time Alt. Az. Time Alt. Az. Time Alt. Az.
30 Apr ? 02:01:17 10° NNW 02:02:57 20° NNW 02:02:57 20° NNW visible
01 May ? 01:30:48 10° NNW 01:32:40 21° N 01:32:40 21° N visible
02 May ? 01:00:25 10° N 01:02:27 20° N 01:02:27 20° N visible
03 May ? 00:30:09 10° N 00:32:17 19° NNE 00:32:17 19° NNE visible
04 May ? 00:00:04 10° N 00:02:10 16° NNE 00:02:10 16° NNE visible
04 May ? 01:42:11 10° NW 01:42:53 14° NW 01:42:53 14° NW visible
04 May ? 23:30:19 10° NNE 23:32:06 13° NE 23:32:06 13° NE visible
05 May ? 01:11:29 10° NNW 01:12:48 18° NNW 01:12:48 18° NNW visible
06 May ? 00:40:54 10° NNW 00:42:47 22° NNW 00:42:47 22° NNW visible
07 May ? 00:10:23 10° NNW 00:12:47 25° N 00:12:47 25° N visible
07 May ? 23:39:58 10° N 23:42:49 26° NNE 23:42:49 26° NNE visible
08 May ? 23:09:41 10° N 23:12:53 24° NNE 23:12:53 24° NNE visible
09 May ? 00:52:42 10° NW 00:53:36 14° NW 00:53:36 14° NW visible
09 May ? 22:39:32 10° N 22:42:59 19° NE 22:42:59 19° NE visible
